Location: Baili�vre
(50.0696°N, 4.2409°E)
Time: 08:01:28
(UTC+00:00)

Meteor 1-18 Rocket - Pass Details

Date: 08 August 2020
Orbit: 836 x 909 km, 81.2° (Epoch: 26 September)

Event Time Altitude Azimuth Distance (km) Brightness Sun altitude
Rises 20:58:22 0° 349° (N) 3,437 8.4 -14.2°
Reaches altitude 10° 21:00:51 10° 354° (N) 2,488 7.5 -14.5°
Maximum altitude 21:06:25 59° 74° (ENE) 972 4.4 -15.1°
Enters shadow 21:09:45 24° 146° (SE) 1,684 5.1 -15.4°
